Location: Peebles
(55.6412°N, 3.1714°W)
Time: 06:25:24
(UTC+01:00)

NOAA 16 DEB - Pass Details

Date: 05 July 2022
Orbit: 836 x 886 km, 98.9° (Epoch: 10 August)

Event Time Altitude Azimuth Distance (km) Brightness Sun altitude
Exits shadow 23:04:03 - 171° (S) 2,809 ? -6.7°
Reaches altitude 10° 23:04:59 10° 172° (S) 2,447 ? -6.7°
Maximum altitude 23:10:23 68° 256° (WSW) 902 ? -7.1°
Drops below altitude 10° 23:15:50 10° 340° (NNW) 2,472 ? -7.5°
Sets 23:18:14 0° 343° (NNW) 3,415 ? -7.6°
